Weather in Tayezhny

Russia / Kamchatka Krai     55°16′22″N   159°22′26″E
temp.,
°C
wind,
m/s
gust,
m/s
humid.,
%
clouds,
%
prec.,
mm/h
press.,
hPa
HPBL,
m
28 february, sun
sun2800:00−12nne41187100 0.1 1013441
03:00−12nne51286100 0.0 1012479
06:00−13nne41286100 0.0 1011493
09:00−13nne41385100 0.0 1010550
12:00−11nne61383100 0.0 1007645
15:00−9nne61283100 0.0 1003695
18:00−10nne41283100 0.0 999769
21:00−11nw41386100 0.0 998744
1 march, mon
mon100:00−11w41193100 0.4 996671
03:00−11n21288100 0.4 994678
06:00−11nne21184100 0.4 995495
09:00−13w0095100 0.1 99634
12:00−9sse1285100 0.1 996459
15:00−8ssw2386100 0.1 995532
18:00−8sse2392100 0.3 996330
21:00−10e1296100 0.3 99932
2 march, tue
tue200:00−10nnw0097100 0.8 100121
03:00−10wsw1196100 0.7 100335
06:00−13sw2291100 0.8 100630
09:00−13sw2390100 0.0 1011126
12:00−9sw2480100 0.1 1013471
15:00−6wsw356472 0.0 10161342
18:00−7sw157855 0.0 1019178
21:00−12sw37780 0.0 1024155
3 march, wed
wed300:00−14ssw368224 0.0 1026114
03:00−17ssw1287100 0.0 102720
06:00−15nnw1288100 0.0 102534
09:00−14n2491100 0.0 1022145
12:00−13nne4794100 0.5 1015304
15:00−12nne61193100 0.6 1005495
18:00−12n51194100 2.9 996491
21:00−12n51095100 5.3 987403
4 march, thu
thu400:00−11nnw3795100 9.9 975276
03:00−8sw91975100 3.5 9751091
06:00−10sw10176372 3.5 9851255
09:00−12wsw818710 0.0 9911759
12:00−12w9196215 0.0 9962237
15:00−10w9196263 0.0 10002388
18:00−10sw4177381 0.0 10022165
21:00−13s398128 0.0 1001194